| time (UTC) | temp F | wind direction | speed MPH | gust MPH | rain 1hr in | rain 24hr in | rain mn in | humidity % | barometer mb |
| 20260509120827 | 56 | 221 | 0.0 | 3.0 | 0.00 | 0.01 | 0.01 | 97 | 1011.0 |
| 20260509120342 | 55 | 216 | 1.0 | 3.0 | 0.00 | 0.01 | 0.01 | 97 | 1010.9 |
| 20260509115815 | 55 | 228 | 0.0 | 0.0 | 0.00 | 0.01 | 0.01 | 97 | 1010.8 |
| 20260509115330 | 55 | 230 | 0.0 | 0.0 | 0.00 | 0.01 | 0.01 | 97 | 1010.8 |
| 20260509114824 | 55 | 226 | 0.0 | 2.0 | 0.00 | 0.01 | 0.01 | 97 | 1010.9 |
| 20260509114318 | 55 | 205 | 0.0 | 2.0 | 0.00 | 0.01 | 0.01 | 97 | 1010.8 |
| 20260509113817 | 55 | 227 | 1.0 | 2.0 | 0.00 | 0.01 | 0.01 | 97 | 1010.8 |
| 20260509113332 | 55 | 223 | 0.0 | 3.0 | 0.00 | 0.01 | 0.01 | 96 | 1010.8 |
| 20260509112827 | 55 | 226 | 0.0 | 1.0 | 0.00 | 0.01 | 0.01 | 96 | 1010.8 |
| 20260509112321 | 55 | 226 | 0.0 | 0.0 | 0.00 | 0.01 | 0.01 | 96 | 1010.7 |
| 20260509111816 | 55 | 225 | 0.0 | 0.0 | 0.00 | 0.01 | 0.01 | 96 | 1010.6 |
| 20260509111331 | 55 | 218 | 0.0 | 0.0 | 0.00 | 0.01 | 0.01 | 96 | 1010.6 |
| 20260509110825 | 55 | 228 | 0.0 | 1.0 | 0.00 | 0.01 | 0.01 | 96 | 1010.6 |
| 20260509110323 | 56 | 228 | 0.0 | 2.0 | 0.00 | 0.01 | 0.01 | 96 | 1010.5 |
| 20260509105818 | 56 | 225 | 1.0 | 3.0 | 0.00 | 0.01 | 0.01 | 97 | 1010.6 |
| 20260509105314 | 56 | 207 | 1.0 | 3.0 | 0.00 | 0.01 | 0.01 | 97 | 1010.6 |
| 20260509104828 | 56 | 226 | 0.0 | 3.0 | 0.00 | 0.01 | 0.01 | 97 | 1010.6 |
| 20260509104323 | 56 | 229 | 1.0 | 3.0 | 0.00 | 0.01 | 0.01 | 97 | 1010.6 |
| 20260509103818 | 56 | 224 | 2.0 | 3.0 | 0.00 | 0.01 | 0.01 | 97 | 1010.6 |
| 20260509103314 | 56 | 215 | 1.0 | 3.0 | 0.00 | 0.01 | 0.01 | 97 | 1010.5 |
| 20260509102813 | 55 | 221 | 1.0 | 2.0 | 0.00 | 0.01 | 0.01 | 97 | 1010.5 |
| 20260509102328 | 55 | 222 | 0.0 | 1.0 | 0.00 | 0.01 | 0.01 | 97 | 1010.5 |
| 20260509101823 | 55 | 222 | 0.0 | 1.0 | 0.00 | 0.01 | 0.01 | 97 | 1010.5 |
| 20260509101317 | 55 | 219 | 0.0 | 2.0 | 0.00 | 0.01 | 0.01 | 97 | 1010.5 |
| 20260509100911 | 55 | 218 | 0.0 | 1.0 | 0.00 | 0.01 | 0.01 | 97 | 1010.4 |
| 20260509100318 | 55 | 214 | 0.0 | 0.0 | 0.00 | 0.01 | 0.01 | 96 | 1010.5 |
| 20260509095831 | 55 | 211 | 0.0 | 1.0 | 0.00 | 0.01 | 0.01 | 96 | 1010.5 |
| 20260509095345 | 55 | 223 | 0.0 | 3.0 | 0.00 | 0.01 | 0.01 | 96 | 1010.6 |
| 20260509094819 | 55 | 221 | 1.0 | 3.0 | 0.00 | 0.01 | 0.01 | 96 | 1010.7 |
| 20260509094313 | 55 | 227 | 0.0 | 0.0 | 0.00 | 0.01 | 0.01 | 96 | 1010.7 |
| 20260509093828 | 54 | 226 | 0.0 | 0.0 | 0.00 | 0.01 | 0.01 | 96 | 1010.6 |
| 20260509093327 | 54 | 225 | 0.0 | 1.0 | 0.00 | 0.01 | 0.01 | 96 | 1010.7 |
| 20260509092822 | 55 | 226 | 0.0 | 2.0 | 0.00 | 0.01 | 0.01 | 96 | 1010.7 |
| 20260509092317 | 55 | 214 | 0.0 | 2.0 | 0.00 | 0.01 | 0.01 | 96 | 1010.8 |
| 20260509091830 | 55 | 217 | 0.0 | 2.0 | 0.00 | 0.01 | 0.01 | 96 | 1010.7 |
| 20260509091345 | 55 | 218 | 1.0 | 2.0 | 0.00 | 0.01 | 0.01 | 95 | 1010.7 |
| 20260509090819 | 55 | 227 | 0.0 | 0.0 | 0.00 | 0.01 | 0.01 | 95 | 1010.7 |
| 20260509090333 | 55 | 209 | 0.0 | 2.0 | 0.00 | 0.01 | 0.01 | 95 | 1010.7 |
| 20260509085828 | 55 | 219 | 1.0 | 2.0 | 0.00 | 0.01 | 0.01 | 95 | 1010.6 |
| 20260509085322 | 55 | 216 | 0.0 | 0.0 | 0.00 | 0.01 | 0.01 | 95 | 1010.7 |
| 20260509084821 | 55 | 229 | 0.0 | 3.0 | 0.00 | 0.01 | 0.01 | 96 | 1010.6 |
| 20260509084316 | 55 | 217 | 0.0 | 3.0 | 0.00 | 0.01 | 0.01 | 96 | 1010.6 |
| 20260509083830 | 55 | 219 | 0.0 | 2.0 | 0.00 | 0.01 | 0.01 | 96 | 1010.6 |
| 20260509083324 | 55 | 214 | 0.0 | 2.0 | 0.00 | 0.01 | 0.01 | 96 | 1010.5 |
| 20260509082819 | 55 | 210 | 0.0 | 2.0 | 0.00 | 0.01 | 0.01 | 96 | 1010.4 |
| 20260509082314 | 55 | 216 | 0.0 | 0.0 | 0.00 | 0.01 | 0.01 | 96 | 1010.4 |
| 20260509081828 | 55 | 211 | 0.0 | 0.0 | 0.00 | 0.01 | 0.01 | 96 | 1010.4 |
| 20260509081323 | 55 | 224 | 0.0 | 0.0 | 0.00 | 0.01 | 0.01 | 95 | 1010.4 |
| 20260509080821 | 55 | 223 | 0.0 | 0.0 | 0.00 | 0.01 | 0.01 | 95 | 1010.4 |
| 20260509080316 | 55 | 224 | 0.0 | 1.0 | 0.00 | 0.01 | 0.01 | 96 | 1010.5 |
| 20260509075851 | 55 | 225 | 0.0 | 1.0 | 0.00 | 0.01 | 0.01 | 96 | 1010.5 |
| 20260509075325 | 55 | 210 | 0.0 | 1.0 | 0.00 | 0.01 | 0.01 | 96 | 1010.5 |
| 20260509074819 | 56 | 218 | 0.0 | 3.0 | 0.00 | 0.01 | 0.01 | 96 | 1010.6 |
| 20260509074313 | 56 | 216 | 1.0 | 3.0 | 0.00 | 0.01 | 0.01 | 96 | 1010.5 |
| 20260509073829 | 56 | 219 | 0.0 | 3.0 | 0.01 | 0.01 | 0.01 | 96 | 1010.5 |
| 20260509073323 | 56 | 221 | 1.0 | 4.0 | 0.01 | 0.01 | 0.01 | 96 | 1010.5 |
| 20260509072818 | 56 | 224 | 2.0 | 4.0 | 0.01 | 0.01 | 0.01 | 96 | 1010.4 |
| 20260509072316 | 56 | 217 | 1.0 | 3.0 | 0.01 | 0.01 | 0.01 | 96 | 1010.4 |
| 20260509071831 | 56 | 213 | 1.0 | 2.0 | 0.01 | 0.01 | 0.01 | 96 | 1010.5 |
| 20260509071326 | 56 | 218 | 0.0 | 2.0 | 0.01 | 0.01 | 0.01 | 97 | 1010.6 |
| 20260509070822 | 56 | 221 | 1.0 | 4.0 | 0.01 | 0.01 | 0.01 | 97 | 1010.6 |
| 20260509070317 | 56 | 218 | 2.0 | 4.0 | 0.01 | 0.01 | 0.01 | 97 | 1010.6 |
| 20260509065832 | 56 | 216 | 1.0 | 2.0 | 0.01 | 0.01 | 0.01 | 97 | 1010.5 |
| 20260509065347 | 56 | 205 | 0.0 | 1.0 | 0.01 | 0.01 | 0.01 | 97 | 1010.5 |
| 20260509064821 | 55 | 219 | 0.0 | 0.0 | 0.01 | 0.01 | 0.01 | 96 | 1010.4 |
| 20260509064320 | 55 | 219 | 0.0 | 0.0 | 0.01 | 0.01 | 0.01 | 96 | 1010.4 |
| 20260509063814 | 55 | 219 | 0.0 | 0.0 | 0.00 | 0.00 | 0.00 | 96 | 1010.4 |
| 20260509063329 | 55 | 218 | 0.0 | 0.0 | 0.00 | 0.00 | 0.00 | 96 | 1010.4 |
| 20260509062824 | 56 | 218 | 0.0 | 0.0 | 0.00 | 0.00 | 0.00 | 96 | 1010.6 |
| 20260509062321 | 56 | 237 | 0.0 | 0.0 | 0.00 | 0.00 | 0.00 | 96 | 1010.6 |
| 20260509061815 | 56 | 237 | 0.0 | 0.0 | 0.00 | 0.00 | 0.00 | 96 | 1010.5 |
| 20260509061329 | 56 | 237 | 0.0 | 0.0 | 0.00 | 0.00 | 0.00 | 96 | 1010.7 |
| 20260509060824 | 56 | 237 | 0.0 | 0.0 | 0.00 | 0.00 | 0.00 | 96 | 1010.6 |
| 20260509060321 | 56 | 237 | 0.0 | 1.0 | 0.00 | 0.00 | 0.00 | 97 | 1010.6 |
| 20260509055820 | 56 | 217 | 0.0 | 1.0 | 0.00 | 0.00 | 0.00 | 97 | 1010.6 |
| 20260509055314 | 56 | 219 | 0.0 | 1.0 | 0.00 | 0.00 | 0.00 | 97 | 1010.7 |
| 20260509054848 | 56 | 210 | 0.0 | 1.0 | 0.00 | 0.00 | 0.00 | 97 | 1010.7 |
| 20260509054321 | 55 | 223 | 0.0 | 0.0 | 0.00 | 0.00 | 0.00 | 97 | 1010.8 |
| 20260509053816 | 55 | 223 | 0.0 | 0.0 | 0.00 | 0.00 | 0.00 | 97 | 1010.8 |
| 20260509053331 | 54 | 206 | 0.0 | 0.0 | 0.00 | 0.00 | 0.00 | 96 | 1010.8 |
| 20260509052825 | 54 | 206 | 0.0 | 0.0 | 0.00 | 0.00 | 0.00 | 95 | 1010.8 |
| 20260509052319 | 55 | 206 | 0.0 | 0.0 | 0.00 | 0.00 | 0.00 | 95 | 1010.8 |
| 20260509051818 | 55 | 206 | 0.0 | 0.0 | 0.00 | 0.00 | 0.00 | 96 | 1010.7 |
| 20260509051313 | 55 | 206 | 0.0 | 0.0 | 0.00 | 0.00 | 0.00 | 95 | 1010.8 |
| 20260509050829 | 55 | 206 | 0.0 | 0.0 | 0.00 | 0.00 | 0.00 | 95 | 1010.8 |
| 20260509050323 | 55 | 206 | 0.0 | 0.0 | 0.00 | 0.00 | 0.00 | 95 | 1010.7 |
| 20260509045818 | 56 | 206 | 0.0 | 0.0 | 0.00 | 0.00 | 0.00 | 95 | 1010.8 |
| 20260509045334 | 56 | 206 | 0.0 | 0.0 | 0.00 | 0.00 | 0.00 | 95 | 1010.8 |
| 20260509044828 | 56 | 206 | 0.0 | 0.0 | 0.00 | 0.00 | 0.00 | 95 | 1010.7 |
| 20260509044343 | 56 | 206 | 0.0 | 0.0 | 0.00 | 0.00 | 0.00 | 95 | 1010.8 |
| 20260509043822 | 57 | 206 | 0.0 | 0.0 | 0.00 | 0.00 | 0.00 | 95 | 1010.8 |
| 20260509043315 | 57 | 206 | 0.0 | 0.0 | 0.00 | 0.00 | 0.00 | 95 | 1010.7 |
| 20260509042830 | 57 | 206 | 0.0 | 0.0 | 0.00 | 0.00 | 0.00 | 95 | 1010.7 |
| 20260509042345 | 57 | 198 | 0.0 | 0.0 | 0.00 | 0.00 | 0.00 | 94 | 1010.7 |
| 20260509041819 | 57 | 198 | 0.0 | 0.0 | 0.00 | 0.00 | 0.00 | 95 | 1010.7 |
| 20260509041313 | 57 | 198 | 0.0 | 0.0 | 0.00 | 0.00 | 0.00 | 95 | 1010.7 |
| 20260509040847 | 57 | 198 | 0.0 | 0.0 | 0.00 | 0.00 | 0.00 | 94 | 1010.6 |
| 20260509040321 | 57 | 137 | 0.0 | 0.0 | 0.00 | 0.00 | 0.00 | 94 | 1010.6 |
| 20260509035816 | 57 | 137 | 0.0 | 0.0 | 0.00 | 0.00 | 0.00 | 94 | 1010.6 |
| 20260509035334 | 57 | 137 | 0.0 | 0.0 | 0.00 | 0.00 | 0.00 | 93 | 1010.5 |
| 20260509034848 | 58 | 137 | 0.0 | 0.0 | 0.00 | 0.00 | 0.00 | 93 | 1010.5 |
| 20260509034321 | 58 | 137 | 0.0 | 0.0 | 0.00 | 0.00 | 0.00 | 92 | 1010.5 |
| 20260509033836 | 58 | 137 | 0.0 | 0.0 | 0.00 | 0.00 | 0.00 | 92 | 1010.5 |
| 20260509033330 | 59 | 137 | 0.0 | 0.0 | 0.00 | 0.00 | 0.00 | 92 | 1010.4 |
| 20260509032825 | 59 | 137 | 0.0 | 0.0 | 0.00 | 0.00 | 0.00 | 92 | 1010.5 |
| 20260509032320 | 60 | 136 | 0.0 | 0.0 | 0.00 | 0.00 | 0.00 | 92 | 1010.4 |
| 20260509031854 | 60 | 137 | 0.0 | 0.0 | 0.00 | 0.00 | 0.00 | 91 | 1010.4 |
| 20260509031327 | 60 | 135 | 0.0 | 0.0 | 0.00 | 0.00 | 0.00 | 91 | 1010.4 |
| 20260509030821 | 61 | 135 | 0.0 | 0.0 | 0.00 | 0.00 | 0.00 | 91 | 1010.3 |
| 20260509030338 | 61 | 135 | 0.0 | 0.0 | 0.00 | 0.00 | 0.00 | 90 | 1010.1 |
| 20260509025831 | 61 | 135 | 0.0 | 0.0 | 0.00 | 0.00 | 0.00 | 90 | 1010.1 |
| 20260509025326 | 61 | 214 | 0.0 | 0.0 | 0.00 | 0.00 | 0.00 | 90 | 1010.1 |
| 20260509024820 | 61 | 213 | 0.0 | 0.0 | 0.00 | 0.00 | 0.00 | 90 | 1010.1 |
| 20260509024315 | 61 | 212 | 0.0 | 0.0 | 0.00 | 0.00 | 0.00 | 90 | 1009.9 |
| 20260509023830 | 62 | 311 | 0.0 | 0.0 | 0.00 | 0.00 | 0.00 | 89 | 1010.0 |
| 20260509023325 | 62 | 311 | 0.0 | 0.0 | 0.00 | 0.00 | 0.00 | 89 | 1010.0 |
| 20260509022820 | 62 | 309 | 0.0 | 0.0 | 0.00 | 0.00 | 0.00 | 89 | 1010.0 |
| 20260509022319 | 62 | 58 | 0.0 | 1.0 | 0.00 | 0.00 | 0.00 | 89 | 1009.9 |
| 20260509021814 | 62 | 317 | 0.0 | 2.0 | 0.00 | 0.00 | 0.00 | 88 | 1009.8 |
| 20260509021329 | 62 | 318 | 0.0 | 2.0 | 0.00 | 0.00 | 0.00 | 87 | 1009.5 |
| 20260509020824 | 62 | 317 | 0.0 | 2.0 | 0.00 | 0.00 | 0.00 | 87 | 1009.4 |
| 20260509020318 | 62 | 319 | 0.0 | 2.0 | 0.00 | 0.00 | 0.00 | 86 | 1009.3 |
| 20260509015832 | 63 | 290 | 0.0 | 2.0 | 0.00 | 0.00 | 0.00 | 86 | 1009.1 |
| 20260509015328 | 63 | 320 | 0.0 | 1.0 | 0.00 | 0.00 | 0.00 | 85 | 1009.0 |
| 20260509014822 | 63 | 319 | 0.0 | 3.0 | 0.00 | 0.00 | 0.00 | 84 | 1008.9 |
| 20260509014321 | 63 | 295 | 1.0 | 3.0 | 0.00 | 0.00 | 0.00 | 84 | 1008.8 |
| 20260509013814 | 63 | 277 | 0.0 | 6.0 | 0.00 | 0.00 | 0.00 | 83 | 1008.7 |
| 20260509013349 | 64 | 340 | 2.0 | 6.0 | 0.00 | 0.00 | 0.00 | 82 | 1008.6 |
| 20260509012822 | 64 | 317 | 1.0 | 7.0 | 0.00 | 0.00 | 0.00 | 80 | 1008.5 |
| 20260509012339 | 65 | 273 | 2.0 | 7.0 | 0.00 | 0.00 | 0.00 | 79 | 1008.3 |
| 20260509011813 | 65 | 292 | 1.0 | 3.0 | 0.00 | 0.00 | 0.00 | 78 | 1008.2 |
| 20260509011328 | 65 | 319 | 0.0 | 1.0 | 0.00 | 0.00 | 0.00 | 77 | 1007.9 |
| 20260509010823 | 64 | 285 | 0.0 | 2.0 | 0.00 | 0.00 | 0.00 | 77 | 1007.7 |
| 20260509010323 | 64 | 197 | 0.0 | 2.0 | 0.00 | 0.00 | 0.00 | 79 | 1007.3 |
| 20260509005818 | 64 | 232 | 0.0 | 0.0 | 0.00 | 0.00 | 0.00 | 80 | 1007.0 |
| 20260509005314 | 65 | 165 | 0.0 | 0.0 | 0.00 | 0.00 | 0.00 | 79 | 1006.7 |
| 20260509004829 | 66 | 165 | 0.0 | 0.0 | 0.00 | 0.00 | 0.00 | 78 | 1006.5 |
| 20260509004324 | 67 | 165 | 0.0 | 0.0 | 0.00 | 0.00 | 0.00 | 75 | 1006.6 |
| 20260509003839 | 67 | 163 | 0.0 | 1.0 | 0.00 | 0.00 | 0.00 | 73 | 1006.5 |
| 20260509003333 | 67 | 207 | 0.0 | 1.0 | 0.00 | 0.00 | 0.00 | 71 | 1006.6 |
| 20260509002827 | 68 | 199 | 0.0 | 0.0 | 0.00 | 0.00 | 0.00 | 70 | 1006.8 |
| 20260509002326 | 68 | 210 | 0.0 | 0.0 | 0.00 | 0.00 | 0.00 | 69 | 1007.0 |
| 20260509001822 | 68 | 226 | 0.0 | 3.0 | 0.00 | 0.00 | 0.00 | 68 | 1007.0 |
| 20260509001336 | 68 | 213 | 0.0 | 2.0 | 0.00 | 0.00 | 0.00 | 68 | 1007.0 |
| 20260509000830 | 68 | 168 | 1.0 | 2.0 | 0.00 | 0.00 | 0.00 | 67 | 1006.9 |
| 20260509000326 | 68 | 271 | 0.0 | 1.0 | 0.00 | 0.00 | 0.00 | 67 | 1007.0 |
| 20260508235840 | 68 | 217 | 0.0 | 1.0 | 0.00 | 0.00 | 0.00 | 67 | 1006.8 |
| 20260508235313 | 69 | 191 | 0.0 | 0.0 | 0.00 | 0.00 | 0.00 | 67 | 1006.4 |
| 20260508234828 | 69 | 191 | 0.0 | 3.0 | 0.00 | 0.00 | 0.00 | 67 | 1006.1 |
| 20260508234322 | 69 | 166 | 1.0 | 4.0 | 0.00 | 0.00 | 0.00 | 65 | 1006.4 |
| 20260508233817 | 70 | 141 | 0.0 | 5.0 | 0.00 | 0.00 | 0.00 | 64 | 1006.6 |
| 20260508233316 | 70 | 151 | 2.0 | 5.0 | 0.00 | 0.00 | 0.00 | 63 | 1006.7 |
| 20260508232830 | 70 | 186 | 2.0 | 4.0 | 0.00 | 0.00 | 0.00 | 62 | 1006.7 |
| 20260508232324 | 71 | 195 | 1.0 | 6.0 | 0.00 | 0.00 | 0.00 | 60 | 1006.9 |
| 20260508231817 | 71 | 185 | 2.0 | 6.0 | 0.00 | 0.00 | 0.00 | 59 | 1006.9 |
| 20260508231331 | 71 | 215 | 1.0 | 5.0 | 0.00 | 0.00 | 0.00 | 58 | 1007.4 |
| 20260508230825 | 72 | 209 | 1.0 | 4.0 | 0.00 | 0.00 | 0.00 | 58 | 1007.6 |
| 20260508230319 | 72 | 167 | 1.0 | 5.0 | 0.00 | 0.00 | 0.00 | 58 | 1007.7 |
| 20260508225813 | 72 | 223 | 2.0 | 8.0 | 0.00 | 0.00 | 0.00 | 55 | 1008.1 |
| 20260508225326 | 72 | 215 | 1.0 | 8.0 | 0.00 | 0.00 | 0.00 | 55 | 1008.2 |
| 20260508224820 | 73 | 215 | 2.0 | 5.0 | 0.00 | 0.00 | 0.00 | 55 | 1008.2 |
| 20260508224319 | 73 | 190 | 1.0 | 4.0 | 0.00 | 0.00 | 0.00 | 59 | 1008.3 |
| 20260508223813 | 73 | 220 | 2.0 | 4.0 | 0.00 | 0.00 | 0.00 | 58 | 1008.4 |
| 20260508223327 | 73 | 220 | 0.0 | 1.0 | 0.00 | 0.00 | 0.00 | 60 | 1008.6 |
| 20260508222822 | 73 | 228 | 0.0 | 0.0 | 0.00 | 0.00 | 0.00 | 59 | 1008.6 |
| 20260508222317 | 73 | 210 | 0.0 | 0.0 | 0.00 | 0.00 | 0.00 | 59 | 1008.5 |
| 20260508221852 | 74 | 208 | 0.0 | 0.0 | 0.00 | 0.00 | 0.00 | 57 | 1008.6 |
| 20260508221326 | 74 | 238 | 0.0 | 0.0 | 0.00 | 0.00 | 0.00 | 58 | 1008.6 |
| 20260508220821 | 74 | 219 | 0.0 | 0.0 | 0.00 | 0.00 | 0.00 | 56 | 1008.7 |
| 20260508220319 | 74 | 223 | 0.0 | 0.0 | 0.00 | 0.00 | 0.00 | 57 | 1008.7 |
| 20260508215854 | 74 | 221 | 0.0 | 4.0 | 0.00 | 0.00 | 0.00 | 56 | 1008.7 |
| 20260508215329 | 75 | 228 | 0.0 | 4.0 | 0.00 | 0.00 | 0.00 | 53 | 1008.6 |
| 20260508214823 | 75 | 196 | 0.0 | 3.0 | 0.00 | 0.00 | 0.00 | 52 | 1008.7 |
| 20260508185815 | 78 | 159 | 2.0 | 8.0 | 0.00 | 0.00 | 0.00 | 55 | 1010.0 |
| 20260508185329 | 78 | 207 | 2.0 | 8.0 | 0.00 | 0.00 | 0.00 | 52 | 1010.1 |
| 20260508184824 | 78 | 133 | 3.0 | 8.0 | 0.00 | 0.00 | 0.00 | 53 | 1010.1 |
| 20260508184323 | 77 | 122 | 3.0 | 7.0 | 0.00 | 0.00 | 0.00 | 47 | 1010.2 |
| 20260508183839 | 78 | 161 | 1.0 | 6.0 | 0.00 | 0.00 | 0.00 | 50 | 1010.1 |
| 20260508183331 | 77 | 155 | 2.0 | 8.0 | 0.00 | 0.00 | 0.00 | 53 | 1010.2 |
| 20260508182826 | 76 | 175 | 1.0 | 12.0 | 0.00 | 0.00 | 0.00 | 56 | 1010.3 |
| 20260508182321 | 75 | 200 | 4.0 | 12.0 | 0.00 | 0.00 | 0.00 | 53 | 1010.3 |
| 20260508181816 | 75 | 215 | 5.0 | 10.0 | 0.00 | 0.00 | 0.00 | 51 | 1010.4 |
| 20260508181330 | 76 | 213 | 3.0 | 8.0 | 0.00 | 0.00 | 0.00 | 51 | 1010.4 |
| 20260508180845 | 75 | 198 | 4.0 | 10.0 | 0.00 | 0.00 | 0.00 | 50 | 1010.5 |
| 20260508180323 | 76 | 204 | 5.0 | 10.0 | 0.00 | 0.00 | 0.00 | 50 | 1010.6 |
| 20260508175837 | 75 | 217 | 4.0 | 12.0 | 0.00 | 0.00 | 0.00 | 51 | 1010.7 |
| 20260508175331 | 75 | 228 | 3.0 | 12.0 | 0.00 | 0.00 | 0.00 | 55 | 1010.7 |
| 20260508174826 | 75 | 18 | 5.0 | 10.0 | 0.00 | 0.00 | 0.00 | 50 | 1010.9 |
| 20260508174321 | 75 | 184 | 3.0 | 10.0 | 0.00 | 0.00 | 0.00 | 52 | 1010.9 |
| 20260508173815 | 75 | 243 | 4.0 | 10.0 | 0.00 | 0.00 | 0.00 | 55 | 1011.0 |
| 20260508173331 | 74 | 162 | 4.0 | 10.0 | 0.00 | 0.00 | 0.00 | 58 | 1011.1 |
| 20260508172825 | 73 | 229 | 5.0 | 10.0 | 0.00 | 0.00 | 0.00 | 54 | 1011.2 |
| 20260508172324 | 73 | 212 | 1.0 | 11.0 | 0.00 | 0.00 | 0.00 | 56 | 1011.3 |
| 20260508171819 | 73 | 158 | 5.0 | 11.0 | 0.00 | 0.00 | 0.00 | 54 | 1011.6 |
| 20260508171314 | 73 | 221 | 4.0 | 10.0 | 0.00 | 0.00 | 0.00 | 60 | 1011.7 |
| 20260508170828 | 73 | 213 | 5.0 | 8.0 | 0.00 | 0.00 | 0.00 | 56 | 1011.7 |
| 20260508170323 | 73 | 269 | 5.0 | 8.0 | 0.00 | 0.00 | 0.00 | 57 | 1011.8 |
| 20260508165818 | 73 | 207 | 3.0 | 8.0 | 0.00 | 0.00 | 0.00 | 58 | 1011.9 |
| 20260508165314 | 72 | 127 | 3.0 | 12.0 | 0.00 | 0.00 | 0.00 | 61 | 1011.9 |
| 20260508164829 | 71 | 229 | 6.0 | 12.0 | 0.00 | 0.00 | 0.00 | 57 | 1012.0 |
| 20260508164346 | 71 | 180 | 4.0 | 11.0 | 0.00 | 0.00 | 0.00 | 58 | 1012.1 |
| 20260508163820 | 71 | 255 | 5.0 | 12.0 | 0.00 | 0.00 | 0.00 | 58 | 1012.2 |
| 20260508163314 | 71 | 215 | 4.0 | 12.0 | 0.00 | 0.00 | 0.00 | 59 | 1012.2 |
| 20260508162829 | 71 | 240 | 5.0 | 12.0 | 0.00 | 0.00 | 0.00 | 59 | 1012.3 |
| 20260508162323 | 71 | 219 | 2.0 | 10.0 | 0.00 | 0.00 | 0.00 | 59 | 1012.3 |
| 20260508161818 | 71 | 200 | 5.0 | 10.0 | 0.00 | 0.00 | 0.00 | 57 | 1012.4 |
| 20260508161332 | 71 | 229 | 4.0 | 13.0 | 0.00 | 0.00 | 0.00 | 58 | 1012.5 |
| 20260508160827 | 70 | 201 | 7.0 | 13.0 | 0.00 | 0.00 | 0.00 | 57 | 1012.6 |
| 20260508160346 | 71 | 211 | 4.0 | 10.0 | 0.00 | 0.00 | 0.00 | 59 | 1012.6 |
| 20260508155820 | 70 | 231 | 4.0 | 13.0 | 0.00 | 0.00 | 0.00 | 60 | 1012.6 |
| 20260508155315 | 70 | 218 | 6.0 | 13.0 | 0.00 | 0.00 | 0.00 | 59 | 1012.6 |
| 20260508154829 | 70 | 234 | 3.0 | 11.0 | 0.00 | 0.00 | 0.00 | 63 | 1012.7 |
| 20260508154325 | 69 | 237 | 4.0 | 11.0 | 0.00 | 0.00 | 0.00 | 61 | 1012.8 |
| 20260508153839 | 68 | 226 | 6.0 | 13.0 | 0.00 | 0.00 | 0.00 | 61 | 1012.8 |
| 20260508153354 | 68 | 214 | 6.0 | 13.0 | 0.00 | 0.00 | 0.00 | 62 | 1012.9 |
| 20260508152828 | 68 | 214 | 3.0 | 10.0 | 0.00 | 0.00 | 0.00 | 65 | 1012.8 |
| 20260508152322 | 67 | 215 | 5.0 | 10.0 | 0.00 | 0.00 | 0.00 | 63 | 1012.9 |
| 20260508151842 | 67 | 226 | 6.0 | 12.0 | 0.00 | 0.00 | 0.00 | 63 | 1013.0 |
| 20260508151335 | 67 | 269 | 5.0 | 12.0 | 0.00 | 0.00 | 0.00 | 64 | 1013.0 |
| 20260508150826 | 67 | 210 | 4.0 | 10.0 | 0.00 | 0.00 | 0.00 | 64 | 1013.0 |
| 20260508150320 | 67 | 221 | 4.0 | 11.0 | 0.00 | 0.00 | 0.00 | 63 | 1013.0 |
| 20260508145854 | 67 | 228 | 2.0 | 14.0 | 0.00 | 0.00 | 0.00 | 67 | 1013.0 |
| 20260508145327 | 67 | 354 | 3.0 | 14.0 | 0.00 | 0.00 | 0.00 | 66 | 1013.1 |
| 20260508144822 | 67 | 184 | 5.0 | 13.0 | 0.00 | 0.00 | 0.00 | 66 | 1013.2 |
| 20260508144337 | 66 | 229 | 3.0 | 13.0 | 0.00 | 0.00 | 0.00 | 66 | 1013.2 |
| 20260508143831 | 66 | 224 | 2.0 | 11.0 | 0.00 | 0.00 | 0.00 | 67 | 1013.3 |
| 20260508143326 | 65 | 174 | 5.0 | 11.0 | 0.00 | 0.00 | 0.00 | 66 | 1013.5 |
| 20260508142825 | 65 | 201 | 4.0 | 8.0 | 0.00 | 0.00 | 0.00 | 68 | 1013.6 |
| 20260508142320 | 64 | 165 | 3.0 | 9.0 | 0.00 | 0.00 | 0.00 | 69 | 1013.5 |
| 20260508141815 | 63 | 208 | 3.0 | 9.0 | 0.00 | 0.00 | 0.00 | 71 | 1013.7 |
| 20260508141330 | 63 | 196 | 3.0 | 9.0 | 0.00 | 0.00 | 0.00 | 70 | 1013.8 |
| 20260508140825 | 63 | 225 | 3.0 | 10.0 | 0.00 | 0.00 | 0.00 | 68 | 1013.7 |
| 20260508140339 | 64 | 212 | 5.0 | 12.0 | 0.00 | 0.00 | 0.00 | 68 | 1013.5 |
| 20260508135833 | 63 | 158 | 4.0 | 12.0 | 0.00 | 0.00 | 0.00 | 70 | 1013.5 |
| 20260508135328 | 63 | 197 | 5.0 | 9.0 | 0.00 | 0.00 | 0.00 | 68 | 1013.7 |
| 20260508134827 | 63 | 229 | 5.0 | 9.0 | 0.00 | 0.00 | 0.00 | 69 | 1013.7 |
| 20260508134323 | 63 | 218 | 3.0 | 9.0 | 0.00 | 0.00 | 0.00 | 69 | 1013.8 |
| 20260508133816 | 62 | 257 | 4.0 | 9.0 | 0.00 | 0.00 | 0.00 | 69 | 1013.9 |
| 20260508133330 | 62 | 201 | 3.0 | 8.0 | 0.00 | 0.00 | 0.00 | 70 | 1013.8 |
| 20260508132844 | 62 | 184 | 3.0 | 7.0 | 0.00 | 0.00 | 0.00 | 70 | 1013.8 |
| 20260508132338 | 61 | 224 | 2.0 | 10.0 | 0.00 | 0.00 | 0.00 | 71 | 1013.8 |
| 20260508131831 | 60 | 203 | 3.0 | 10.0 | 0.00 | 0.00 | 0.00 | 71 | 1013.7 |
| 20260508131326 | 60 | 221 | 5.0 | 10.0 | 0.00 | 0.00 | 0.00 | 70 | 1013.6 |
| 20260508130840 | 60 | 210 | 4.0 | 10.0 | 0.00 | 0.00 | 0.00 | 70 | 1013.5 |
| 20260508130317 | 60 | 210 | 3.0 | 7.0 | 0.00 | 0.00 | 0.00 | 71 | 1013.6 |
| 20260508125831 | 60 | 212 | 4.0 | 10.0 | 0.00 | 0.00 | 0.00 | 69 | 1013.4 |
| 20260508125325 | 60 | 215 | 5.0 | 12.0 | 0.00 | 0.00 | 0.00 | 69 | 1013.4 |
| 20260508124820 | 60 | 219 | 4.0 | 12.0 | 0.00 | 0.00 | 0.00 | 69 | 1013.4 |
| 20260508124314 | 60 | 226 | 4.0 | 10.0 | 0.00 | 0.00 | 0.00 | 69 | 1013.3 |
| 20260508123849 | 60 | 203 | 4.0 | 10.0 | 0.00 | 0.00 | 0.00 | 69 | 1013.3 |
| 20260508123323 | 59 | 203 | 6.0 | 10.0 | 0.00 | 0.00 | 0.00 | 69 | 1013.2 |
| 20260508122818 | 59 | 212 | 3.0 | 11.0 | 0.00 | 0.00 | 0.00 | 70 | 1013.3 |
| 20260508122315 | 58 | 212 | 4.0 | 11.0 | 0.00 | 0.00 | 0.00 | 71 | 1013.2 |
| 20260508121829 | 58 | 193 | 4.0 | 11.0 | 0.00 | 0.00 | 0.00 | 71 | 1013.2 |
| 20260508121323 | 57 | 140 | 3.0 | 10.0 | 0.00 | 0.00 | 0.00 | 71 | 1013.1 |